Brunswick, GA

9:53 AM EDT on August 29, 2016 (GMT -0400)
Glynco Jetport

Weather History for KBQK - January, 2011

Change the Weather History Date:

Tuesday, January 4, 2011

  Actual Average Record
Temperature  
Mean Temperature 48 °F -  
Max Temperature 61 °F 66 °F 81 °F (1973)
Min Temperature 34 °F 45 °F 23 °F (2001)
Degree Days  
Heating Degree Days 18    
Moisture  
Dew Point 42 °F    
Average Humidity 83    
Maximum Humidity 100    
Minimum Humidity 51    
Precipitation  
Precipitation 0.00 in - - ()
Sea Level Pressure  
Sea Level Pressure 30.15 in    
Wind  
Wind Speed 1 mph (WNW)    
Max Wind Speed 8 mph    
Max Gust Speed -    
Visibility 9 miles    
Events      
Averages and records for this station are not official NWS values.
T = Trace of Precipitation, MM = Missing Value Source: NWS Daily Summary

Daily Weather History Graph

Daily Weather History Graph

Search for Another Location

Airport or City:

Trip Planner

Search our weather history database for the weather conditions in past years. The results will help you decide how hot, cold, wet, or windy it might be!

Date:

Astronomy

Jan. 04, 2011 Rise Set
Actual Time 7:25 AM EST 5:36 PM EST
Civil Twilight 6:58 AM EST 6:03 PM EST
Nautical Twilight 6:28 AM EST 6:33 PM EST
Astronomical Twilight 5:59 AM EST 7:02 PM EST
Moon 7:33 AM EST (1/4) 6:07 PM EST (1/4)
Length of Visible Light 11h 04m
Length of Day
10h 11m
New Moon, 0% of the Moon is Illuminated
Jan 4
New Moon
Jan 12
First Quarter
Jan 19
Full
Jan 26
Last Quarter
Feb 2
New

Hourly Weather History & Observations

Time (EST) Temp. Windchill Dew Point Humidity Pressure Visibility Wind Dir Wind Speed Gust Speed Precip Events Conditions
12:17 AM 36.0 °F - 36.1 °F 100% 30.22 in 2.5 mi Calm Calm - N/A   Clear
12:37 AM 35.8 °F - 36.0 °F 100% 30.21 in 1.0 mi Calm Calm - N/A   Unknown
12:57 AM 34.9 °F - 35.1 °F 100% 30.20 in 1.2 mi Calm Calm - N/A   Mostly Cloudy
1:17 AM 35.6 °F - 35.8 °F 100% 30.20 in 7.0 mi Calm Calm - N/A   Scattered Clouds
1:37 AM 36.0 °F - 36.1 °F 100% 30.19 in 1.5 mi Calm Calm - N/A   Scattered Clouds
1:57 AM 35.6 °F - 35.6 °F 100% 30.19 in 2.0 mi Calm Calm - N/A   Scattered Clouds
2:17 AM 34.7 °F - 34.9 °F 100% 30.19 in 4.0 mi Calm Calm - N/A   Clear
2:37 AM 35.1 °F - 35.2 °F 100% 30.18 in 1.5 mi Calm Calm - N/A   Scattered Clouds
2:57 AM 35.8 °F - 35.8 °F 100% 30.18 in 3.0 mi Calm Calm - N/A   Clear
3:17 AM 36.5 °F - 36.7 °F 100% 30.18 in 10.0 mi Calm Calm - N/A   Mostly Cloudy
3:37 AM 37.4 °F - 37.6 °F 100% 30.17 in 10.0 mi Calm Calm - N/A   Overcast
3:57 AM 36.7 °F - 36.9 °F 100% 30.17 in 10.0 mi Calm Calm - N/A   Mostly Cloudy
4:17 AM 38.3 °F - 38.3 °F 100% 30.16 in 10.0 mi Calm Calm - N/A   Mostly Cloudy
4:37 AM 36.5 °F - 36.7 °F 100% 30.16 in 2.0 mi Calm Calm - N/A   Scattered Clouds
4:57 AM 37.8 °F - 37.9 °F 100% 30.17 in 7.0 mi Calm Calm - N/A   Mostly Cloudy
5:17 AM - - - N/A% 30.16 in 10.0 mi Calm Calm - N/A   Overcast
5:37 AM 38.7 °F - 38.8 °F 100% 30.17 in 7.0 mi Calm Calm - N/A   Overcast
5:57 AM 39.2 °F - 39.4 °F 100% 30.18 in 10.0 mi Calm Calm - N/A   Overcast
6:17 AM 40.1 °F - 40.3 °F 100% 30.18 in 10.0 mi Calm Calm - N/A   Overcast
6:37 AM 40.8 °F - 41.0 °F 100% 30.17 in 10.0 mi Calm Calm - N/A   Overcast
6:57 AM 40.5 °F - 40.5 °F 100% 30.15 in 10.0 mi Calm Calm - N/A   Overcast
7:17 AM 40.8 °F - 40.8 °F 100% 30.16 in 10.0 mi Calm Calm - N/A   Mostly Cloudy
7:37 AM 41.2 °F - 41.2 °F 100% 30.16 in 10.0 mi Calm Calm - N/A   Overcast
7:57 AM 42.1 °F - 42.1 °F 100% 30.16 in 10.0 mi Calm Calm - N/A   Overcast
8:17 AM 42.4 °F - 42.3 °F 99% 30.18 in 10.0 mi Calm Calm - N/A   Mostly Cloudy
8:37 AM 44.6 °F - 42.8 °F 93% 30.18 in 10.0 mi Calm Calm - N/A   Mostly Cloudy
8:57 AM 43.9 °F - 43.2 °F 97% 30.19 in 10.0 mi Calm Calm - N/A   Mostly Cloudy
9:17 AM 44.4 °F - 43.5 °F 97% 30.20 in 10.0 mi Calm Calm - N/A   Overcast
9:37 AM 46.4 °F - 44.6 °F 93% 30.21 in 10.0 mi Calm Calm - N/A   Overcast
9:57 AM 46.8 °F - 45.3 °F 95% 30.20 in 10.0 mi Calm Calm - N/A   Mostly Cloudy
10:17 AM 48.2 °F - 46.2 °F 93% 30.19 in 10.0 mi Calm Calm - N/A   Mostly Cloudy
10:37 AM 49.6 °F - 46.6 °F 89% 30.20 in 10.0 mi Calm Calm - N/A   Mostly Cloudy
10:57 AM 52.9 °F - 47.5 °F 82% 30.19 in 10.0 mi Calm Calm - N/A   Scattered Clouds
11:17 AM 55.9 °F - 45.7 °F 68% 30.18 in 10.0 mi Calm Calm - N/A   Clear
11:37 AM 57.4 °F - 44.1 °F 61% 30.17 in 10.0 mi WNW 4.6 mph - N/A   Mostly Cloudy
11:57 AM 58.1 °F - 44.2 °F 60% 30.16 in 10.0 mi WNW 5.8 mph - N/A   Overcast
12:17 PM 58.1 °F - 44.4 °F 60% 30.15 in 10.0 mi West 5.8 mph - N/A   Overcast
12:37 PM 58.3 °F - 44.6 °F 60% 30.14 in 10.0 mi North 3.5 mph - N/A   Overcast
12:57 PM 58.1 °F - 45.0 °F 62% 30.13 in 10.0 mi WNW 6.9 mph - N/A   Overcast
1:17 PM 58.8 °F - 45.7 °F 62% 30.12 in 10.0 mi NW 4.6 mph - N/A   Overcast
1:37 PM 58.8 °F - 45.5 °F 61% 30.11 in 10.0 mi West 6.9 mph - N/A   Overcast
1:57 PM 59.2 °F - 45.3 °F 60% 30.10 in 10.0 mi WNW 5.8 mph - N/A   Overcast
2:17 PM 60.1 °F - 45.0 °F 57% 30.09 in 10.0 mi West 6.9 mph - N/A   Overcast
2:37 PM 60.1 °F - 44.8 °F 57% 30.08 in 10.0 mi WNW 6.9 mph - N/A   Overcast
2:57 PM 61.3 °F - 44.4 °F 54% 30.09 in 10.0 mi West 5.8 mph - N/A   Mostly Cloudy
3:17 PM 61.7 °F - 43.7 °F 52% 30.09 in 10.0 mi West 8.1 mph - N/A   Mostly Cloudy
3:37 PM 60.8 °F - 43.2 °F 52% 30.10 in 10.0 mi West 6.9 mph - N/A   Overcast
3:57 PM 60.8 °F - 42.4 °F 51% 30.11 in 10.0 mi WNW 6.9 mph - N/A   Overcast
4:17 PM 59.9 °F - 42.1 °F 52% 30.11 in 10.0 mi NW 5.8 mph - N/A   Overcast
4:37 PM 59.2 °F - 41.2 °F 51% 30.11 in 10.0 mi WNW 5.8 mph - N/A   Overcast
4:57 PM 58.6 °F - 41.7 °F 53% 30.11 in 10.0 mi WNW 4.6 mph - N/A   Overcast
5:17 PM 58.1 °F - 42.4 °F 56% 30.11 in 10.0 mi Calm Calm - N/A   Overcast
5:37 PM 55.9 °F - 43.3 °F 63% 30.10 in 10.0 mi Calm Calm - N/A   Scattered Clouds
5:57 PM 50.5 °F - 44.1 °F 78% 30.11 in 10.0 mi NNW 3.5 mph - N/A   Clear
6:17 PM 48.4 °F - 43.7 °F 84% 30.11 in 10.0 mi Calm Calm - N/A   Clear
6:37 PM 46.4 °F - 42.8 °F 87% 30.12 in 10.0 mi Calm Calm - N/A   Clear
6:57 PM 46.8 °F - 44.1 °F 90% 30.12 in 10.0 mi Calm Calm - N/A   Clear
7:17 PM 46.4 °F - 43.9 °F 91% 30.12 in 10.0 mi Calm Calm - N/A   Clear
7:37 PM 45.3 °F - 43.9 °F 95% 30.11 in 10.0 mi Calm Calm - N/A   Clear
7:57 PM 44.4 °F - 43.2 °F 95% 30.11 in 10.0 mi Calm Calm - N/A   Clear
8:17 PM 44.1 °F - 42.8 °F 95% 30.12 in 10.0 mi Calm Calm - N/A   Clear
8:37 PM 43.9 °F - 42.4 °F 95% 30.12 in 10.0 mi Calm Calm - N/A   Clear
8:57 PM 43.7 °F - 42.6 °F 96% 30.12 in 10.0 mi Calm Calm - N/A   Clear
9:17 PM 42.8 °F - 42.3 °F 98% 30.12 in 10.0 mi Calm Calm - N/A   Clear
9:37 PM 42.1 °F - 41.5 °F 98% 30.12 in 10.0 mi Calm Calm - N/A   Clear
9:57 PM 42.8 °F - 42.6 °F 99% 30.12 in 10.0 mi Calm Calm - N/A   Clear
10:17 PM 41.5 °F 39.6 °F 41.2 °F 99% 30.11 in 10.0 mi West 3.5 mph - N/A   Clear
10:37 PM 41.7 °F 39.8 °F 41.5 °F 99% 30.11 in 10.0 mi West 3.5 mph - N/A   Clear
10:57 PM 41.9 °F 40.0 °F 41.5 °F 99% 30.11 in 10.0 mi West 3.5 mph - N/A   Clear
11:17 PM 41.4 °F 38.4 °F 41.2 °F 99% 30.10 in 7.0 mi West 4.6 mph - N/A   Clear
11:37 PM 41.0 °F 39.0 °F 40.8 °F 99% 30.10 in 4.0 mi West 3.5 mph - N/A   Clear
11:57 PM 42.1 °F 39.2 °F 42.1 °F 100% 30.10 in 10.0 mi West 4.6 mph - N/A   Clear